Location: *
(51.5000°N, 0.1100°W)
Time: 17:22:51
(UTC+00:00)

Meteor 2-10 Rocket - Pass Details

Date: 25 May 2024
Orbit: 734 x 882 km, 81.2° (Epoch: 16 June)

Event Time Altitude Azimuth Distance (km) Brightness Sun altitude
Rises 00:30:18 0° 344° (NNW) 3,495 8.1 -17.1°
Reaches altitude 10° 00:32:47 10° 341° (NNW) 2,554 7.2 -17.1°
Maximum altitude 00:38:29 58° 264° (W) 1,024 4.0 -16.9°
Enters shadow 00:41:32 27° 196° (SSW) 1,613 4.6 -16.8°
